Regional Weather Roundup
Issued by NWS Bismarck, ND

Home | Current Version | Previous Version | Text Only | Print | Product List | Glossary On
Versions: 1 2 3 4 5 6 7 8 9 10 11 12 13 14 15 16 17 18 19 20 21 22 23 24 25 26 27 28 29 30 31 32 33 34 35 36 37 38 39 40 41 42 43 44 45 46 47 48 49 50
000
ASUS43 KBIS 192302
RWRBIS

NWR BROADCAST TEXT
NATIONAL WEATHER SERVICE BISMARCK ND
600 PM CDT THU OCT 19 2017

NOTE: "FAIR" INDICATES FEW OR NO CLOUDS BELOW 12,000 FEET WITH NO
SIGNIFICANT WEATHER AND/OR OBSTRUCTIONS TO VISIBILITY.


CITY           SKY/WX    TMP DP  RH WIND       PRES   REMARKS
WILLISTON      CLEAR     77  33  20 S7        29.63F
MINOT          CLEAR     77  33  20 S10       29.65S
MINOT AFB      CLEAR     75  33  22 S9        29.63S
BISMARCK       CLEAR     73  37  27 SE13      29.71F
DICKINSON      CLEAR     77  31  18 S5        29.69F
GARRISON         N/A     72  36  26 S5        29.68F
HETTINGER ARPT CLEAR     76  27  16 SE5       29.73F
JAMESTOWN      CLEAR     69  42  37 S9        29.74S
CARRINGTON     FAIR      72  37  28 S7        29.73S
HAZEN          FAIR      75  34  22 SW3       29.69F
LINTON         FAIR      72  41  33 SE5       29.76S
RUGBY          FAIR      73  37  27 S3        29.66F
STANLEY        FAIR      72  36  26 S9        29.68S
TIOGA          FAIR      73  32  21 S7        29.66S
WATFORD CITY   FAIR      77  30  18 S6        29.64F
$$

CITY           SKY/WX    TMP DP  RH WIND       PRES   REMARKS
GRAND FORKS    PTCLDY    69  41  36 S14       29.71F
GRAND FORKS AF CLEAR     67  39  35 S10       29.72S
DEVILS LAKE    CLEAR     69  39  33 S7        29.70S
FARGO          CLEAR     69  42  37 S9        29.76S
CANDO          FAIR      68  37  32 SE8       29.70S
CAVALIER       FAIR      70  39  32 S8        29.67S
GRAFTON        FAIR      68  39  34 S13       29.71F
GWINNER        CLEAR     68  43  40 S6        29.78S
LANGDON        FAIR      68  37  32 S12       29.70S
ROLLA          FAIR      68  32  26 SW8       29.68S
WALHALLA       FAIR     N/A N/A N/A S5        29.67S
$$

CITY           SKY/WX    TMP DP  RH WIND       PRES   REMARKS
ABERDEEN       CLEAR     73  45  36 S9        29.77S
MOBRIDGE       CLEAR     73  41  31 S8        29.72F
BUFFALO          N/A     76  29  17 SE8       29.67F
RAPID CITY     CLEAR     80  19  10 SW10      29.76S
GLASGOW        CLEAR     79  21  11 SW9       29.57F
SIDNEY         CLEAR     74  36  25 S7        29.63
WOLF POINT     CLEAR     82  20  10 W8        29.58F
GLENDIVE       CLEAR     76  33  21 S8        29.66F
MILES CITY     SUNNY     80  29  15 S8        29.64F
BAKER          CLEAR     77  33  20 S8        29.71F
$$

CITY           SKY/WX    TMP DP  RH WIND       PRES   REMARKS
BILLINGS       MOSUNNY   78  21  12 SW13      29.65F
GREAT FALLS    CLOUDY    73  18  12 SW9       29.55F
$$




USA.gov is the U.S. government's official web portal to all federal, state and local government web resources and services.